Simultaneous Nadir Overpasses (SNOs) Predictions

Prediction of SNOs between GOES-17 and LANDSAT-8 Satellite Orbit:

Table of predicted SNOs for the next 14.0 days since TLE Epoch: 10/7/2023
Index Date Time (GOES-17) GOES-17 Lat,Lon LANDSAT-8 Lat,Lon Distance(km) Time Diff (sec)
1 10/07/2023 17:06:43 0.02,-104.71 -0.28,-103.28 163.12 80
2 10/08/2023 05:28:08 -0.02,-104.69 -0.80,-108.47 429.33 80
3 10/09/2023 16:54:33 0.00,-104.71 -0.92,-100.32 498.55 80
4 10/10/2023 05:15:58 -0.00,-104.69 -0.15,-105.52 93.92 80
5 10/12/2023 05:01:07 0.01,-104.69 0.46,-102.57 242.18 80
6 10/12/2023 17:22:23 -0.01,-104.71 0.61,-107.73 342.35 80
7 10/14/2023 17:10:11 -0.02,-104.71 0.01,-104.76 6.11 80
8 10/16/2023 17:00:39 -0.02,-104.72 -0.61,-101.80 330.88 80
9 10/17/2023 05:22:03 0.02,-104.70 -0.49,-106.99 260.71 80
10 10/19/2023 05:07:11 0.01,-104.70 0.17,-104.03 75.95 80
